SWA6090 KLAX-KSMF

Flight info

Callsign SWA6090
Flight time 1h 1m
Altitude 36000
Route LADYJ4 CSTRO NURAY SUUTR4
Aircraft B738/M-SDE2E3FGHIRWXY/LB1

Departure

Time 2026-05-05 18:05
Airport Los Angeles International Airport (KLAX)

Arrival

Time 2026-05-05 19:07
Airport Sacramento International Airport (KSMF)
Time Latitude Longitude Altitude Speed Heading
2026-05-05 17:37 33.94768 -118.40061 121 ft 0 kts 243°
2026-05-05 17:59 33.94775 -118.40046 119 ft 4 kts 255°
2026-05-05 18:00 33.94775 -118.40019 119 ft 4 kts 314°
2026-05-05 18:00 33.94761 -118.40011 119 ft 1 kts
2026-05-05 18:00 33.94758 -118.40011 120 ft 0 kts
2026-05-05 18:03 33.94777 -118.40009 116 ft 6 kts
2026-05-05 18:03 33.94837 -118.40022 123 ft 12 kts 325°
2026-05-05 18:03 33.94865 -118.40067 121 ft 8 kts 324°
2026-05-05 18:03 33.94919 -118.40047 122 ft 12 kts 70°
2026-05-05 18:04 33.94947 -118.39932 124 ft 13 kts 48°
2026-05-05 18:04 33.94953 -118.39927 122 ft 0 kts 39°
2026-05-05 18:04 33.94954 -118.39926 122 ft 2 kts 36°
2026-05-05 18:04 33.95023 -118.39919 124 ft 17 kts 345°
2026-05-05 18:05 33.95033 -118.40046 122 ft 34 kts 264°
2026-05-05 18:05 33.94965 -118.40704 125 ft 121 kts 263°
2026-05-05 18:05 33.94851 -118.41984 369 ft 174 kts 263°
2026-05-05 18:05 33.94697 -118.43552 1063 ft 206 kts 262°
2026-05-05 18:06 33.94509 -118.45406 1471 ft 241 kts 262°
2026-05-05 18:06 33.94441 -118.46074 1572 ft 253 kts 262°
2026-05-05 18:06 33.94224 -118.49677 3292 ft 257 kts 269°
2026-05-05 18:06 33.94167 -118.51823 4393 ft 255 kts 266°
2026-05-05 18:07 33.94011 -118.53983 4871 ft 259 kts 265°
2026-05-05 18:07 33.93833 -118.56116 5007 ft 263 kts 265°
2026-05-05 18:07 33.93652 -118.58321 5015 ft 265 kts 265°
2026-05-05 18:07 33.93479 -118.60534 5126 ft 266 kts 268°
2026-05-05 18:08 33.93780 -118.62709 5895 ft 265 kts 298°
2026-05-05 18:08 33.94891 -118.64447 6930 ft 264 kts 321°
2026-05-05 18:08 33.96422 -118.65694 7643 ft 265 kts 328°
2026-05-05 18:08 33.97983 -118.66842 7966 ft 265 kts 330°
2026-05-05 18:09 33.99094 -118.67485 7965 ft 271 kts 345°
2026-05-05 18:09 34.01601 -118.67679 7992 ft 274 kts
2026-05-05 18:09 34.03499 -118.67534 8037 ft 271 kts
2026-05-05 18:09 34.05379 -118.67383 8430 ft 273 kts
2026-05-05 18:10 34.06664 -118.67288 9015 ft 275 kts
2026-05-05 18:10 34.08579 -118.67090 9939 ft 279 kts
2026-05-05 18:10 34.10520 -118.66652 10536 ft 294 kts 10°
2026-05-05 18:10 34.12617 -118.66117 10728 ft 321 kts 11°
2026-05-05 18:11 34.14884 -118.65538 11024 ft 342 kts 11°
2026-05-05 18:11 34.17217 -118.64960 11708 ft 349 kts 10°
2026-05-05 18:11 34.19611 -118.64383 12527 ft 353 kts 10°
2026-05-05 18:11 34.22042 -118.63806 13279 ft 359 kts 10°
2026-05-05 18:12 34.24520 -118.63341 14002 ft 363 kts
2026-05-05 18:12 34.27026 -118.63719 14714 ft 364 kts 347°
2026-05-05 18:12 34.29519 -118.64341 15493 ft 366 kts 347°
2026-05-05 18:12 34.32043 -118.64960 16156 ft 371 kts 348°
2026-05-05 18:13 34.34591 -118.65566 16885 ft 374 kts 348°
2026-05-05 18:13 34.37167 -118.66162 17545 ft 379 kts 348°
2026-05-05 18:13 34.39770 -118.66755 18283 ft 382 kts 348°
2026-05-05 18:13 34.42361 -118.67346 18900 ft 385 kts 348°
2026-05-05 18:14 34.45022 -118.67915 19476 ft 389 kts 350°
2026-05-05 18:14 34.47703 -118.68437 20097 ft 392 kts 351°
2026-05-05 18:14 34.50407 -118.68950 20722 ft 394 kts 351°
2026-05-05 18:14 34.53132 -118.69469 21316 ft 397 kts 351°
2026-05-05 18:15 34.55870 -118.69995 21892 ft 400 kts 351°
2026-05-05 18:15 34.58631 -118.70530 22469 ft 403 kts 351°
2026-05-05 18:15 34.61408 -118.71073 23103 ft 403 kts 351°
2026-05-05 18:15 34.64149 -118.71610 24005 ft 396 kts 351°
2026-05-05 18:16 34.66883 -118.72145 24466 ft 399 kts 352°
2026-05-05 18:16 34.69641 -118.72685 24834 ft 405 kts 352°
2026-05-05 18:16 34.72417 -118.73445 25213 ft 411 kts 341°
2026-05-05 18:16 34.74974 -118.75067 25548 ft 418 kts 332°
2026-05-05 18:17 34.77488 -118.76850 25971 ft 420 kts 333°
2026-05-05 18:17 34.80036 -118.78633 26322 ft 424 kts 332°
2026-05-05 18:17 34.82607 -118.80418 26763 ft 426 kts 333°
2026-05-05 18:17 34.85194 -118.82205 27141 ft 429 kts 333°
2026-05-05 18:18 34.87766 -118.83977 27529 ft 431 kts 333°
2026-05-05 18:18 34.90389 -118.85781 27895 ft 434 kts 333°
2026-05-05 18:18 34.93031 -118.87598 28264 ft 437 kts 333°
2026-05-05 18:18 34.95684 -118.89424 28618 ft 440 kts 333°
2026-05-05 18:19 34.98360 -118.91268 28978 ft 442 kts 333°
2026-05-05 18:19 35.01041 -118.93116 29340 ft 444 kts 334°
2026-05-05 18:19 35.03739 -118.94979 29737 ft 445 kts 334°
2026-05-05 18:19 35.06431 -118.96843 30243 ft 442 kts 334°
2026-05-05 18:20 35.09090 -118.98686 30781 ft 439 kts 334°
2026-05-05 18:20 35.11758 -119.00530 31087 ft 441 kts 334°
2026-05-05 18:20 35.14436 -119.02380 31309 ft 444 kts 334°
2026-05-05 18:20 35.17129 -119.04243 31623 ft 445 kts 334°
2026-05-05 18:21 35.19821 -119.06108 31962 ft 444 kts 334°
2026-05-05 18:21 35.22505 -119.07970 32313 ft 444 kts 334°
2026-05-05 18:21 35.25194 -119.09838 32604 ft 445 kts 334°
2026-05-05 18:21 35.27898 -119.11717 32884 ft 446 kts 334°
2026-05-05 18:22 35.30602 -119.13598 33202 ft 447 kts 334°
2026-05-05 18:22 35.33268 -119.15454 33519 ft 447 kts 334°
2026-05-05 18:22 35.35980 -119.17344 33812 ft 448 kts 334°
2026-05-05 18:22 35.38688 -119.19232 34090 ft 448 kts 334°
2026-05-05 18:23 35.41393 -119.21120 34397 ft 447 kts 334°
2026-05-05 18:23 35.44092 -119.23002 34697 ft 446 kts 334°
2026-05-05 18:23 35.46891 -119.24594 34933 ft 442 kts 343°
2026-05-05 18:23 35.49800 -119.25807 35194 ft 441 kts 345°
2026-05-05 18:24 35.52738 -119.26922 35461 ft 441 kts 346°
2026-05-05 18:24 35.55675 -119.28013 35679 ft 442 kts 345°
2026-05-05 18:24 35.58615 -119.29119 35944 ft 441 kts 346°
2026-05-05 18:24 35.61548 -119.30247 36053 ft 444 kts 345°
2026-05-05 18:25 35.64454 -119.31388 36077 ft 444 kts 345°
2026-05-05 18:25 35.70315 -119.33736 36073 ft 440 kts 345°
2026-05-05 18:26 35.76098 -119.36074 36070 ft 436 kts 345°
2026-05-05 18:26 35.81865 -119.38406 36072 ft 435 kts 345°
2026-05-05 18:27 35.87616 -119.40733 36054 ft 434 kts 345°
2026-05-05 18:27 35.93353 -119.43057 36058 ft 434 kts 345°
2026-05-05 18:28 36.01913 -119.46529 36059 ft 433 kts 346°
2026-05-05 18:28 36.07647 -119.48861 36061 ft 434 kts 346°
2026-05-05 18:29 36.13383 -119.51198 36067 ft 434 kts 346°
2026-05-05 18:29 36.19133 -119.53544 36061 ft 434 kts 346°
2026-05-05 18:30 36.24831 -119.55876 36069 ft 432 kts 347°
2026-05-05 18:30 36.30527 -119.58204 36074 ft 430 kts 347°
2026-05-05 18:31 36.36214 -119.60534 36065 ft 429 kts 347°
2026-05-05 18:31 36.41880 -119.62860 36069 ft 428 kts 347°
2026-05-05 18:32 36.47534 -119.65184 36069 ft 428 kts 347°
2026-05-05 18:32 36.53190 -119.67512 36064 ft 428 kts 347°
2026-05-05 18:33 36.58832 -119.69893 36065 ft 430 kts 344°
2026-05-05 18:33 36.64094 -119.73556 36086 ft 440 kts 334°
2026-05-05 18:34 36.69246 -119.77699 36083 ft 440 kts 334°
2026-05-05 18:34 36.74404 -119.81826 36083 ft 440 kts 334°
2026-05-05 18:35 36.79584 -119.85942 36076 ft 441 kts 335°
2026-05-05 18:35 36.84734 -119.90020 36079 ft 441 kts 335°
2026-05-05 18:36 36.89925 -119.94138 36073 ft 442 kts 335°
2026-05-05 18:36 36.92526 -119.96203 35848 ft 445 kts 335°
2026-05-05 18:36 36.95151 -119.98287 35314 ft 447 kts 335°
2026-05-05 18:37 36.97775 -120.00378 34689 ft 446 kts 336°
2026-05-05 18:37 37.00401 -120.02472 34064 ft 446 kts 337°
2026-05-05 18:37 37.02997 -120.04542 33312 ft 447 kts 336°
2026-05-05 18:37 37.05625 -120.06638 32589 ft 447 kts 336°
2026-05-05 18:38 37.08245 -120.08731 31893 ft 446 kts 336°
2026-05-05 18:38 37.10839 -120.10809 31450 ft 439 kts 336°
2026-05-05 18:38 37.13403 -120.12864 30934 ft 435 kts 335°
2026-05-05 18:38 37.15938 -120.14896 30465 ft 430 kts 335°
2026-05-05 18:39 37.18443 -120.16903 29964 ft 425 kts 335°
2026-05-05 18:39 37.20922 -120.18889 29427 ft 420 kts 335°
2026-05-05 18:39 37.23374 -120.20857 28935 ft 415 kts 335°
2026-05-05 18:39 37.25789 -120.22796 28425 ft 410 kts 335°
2026-05-05 18:40 37.28176 -120.24714 27949 ft 405 kts 335°
2026-05-05 18:40 37.30546 -120.26583 27443 ft 401 kts 335°
2026-05-05 18:40 37.32914 -120.28421 26966 ft 398 kts 336°
2026-05-05 18:40 37.35265 -120.30241 26472 ft 395 kts 335°
2026-05-05 18:41 37.37566 -120.32026 26001 ft 392 kts 335°
2026-05-05 18:41 37.39879 -120.33826 25527 ft 389 kts 335°
2026-05-05 18:41 37.42170 -120.35612 25042 ft 386 kts 335°
2026-05-05 18:41 37.44461 -120.37400 24581 ft 387 kts 334°
2026-05-05 18:42 37.46750 -120.39190 24117 ft 387 kts 334°
2026-05-05 18:42 37.48959 -120.41145 23612 ft 389 kts 328°
2026-05-05 18:42 37.51055 -120.43283 23076 ft 387 kts 326°
2026-05-05 18:42 37.53122 -120.45455 22562 ft 384 kts 326°
2026-05-05 18:43 37.55176 -120.47583 22082 ft 380 kts 326°
2026-05-05 18:43 37.57223 -120.49661 21606 ft 376 kts 327°
2026-05-05 18:43 37.59254 -120.51704 21141 ft 372 kts 327°
2026-05-05 18:43 37.61246 -120.53700 20759 ft 367 kts 327°
2026-05-05 18:44 37.63232 -120.55688 20400 ft 362 kts 327°
2026-05-05 18:44 37.65195 -120.57653 20048 ft 358 kts 327°
2026-05-05 18:44 37.67144 -120.59605 19700 ft 355 kts 326°
2026-05-05 18:44 37.69069 -120.61535 19356 ft 353 kts 326°
2026-05-05 18:45 37.70988 -120.63460 19009 ft 351 kts 326°
2026-05-05 18:45 37.72893 -120.65374 18670 ft 350 kts 326°
2026-05-05 18:45 37.74796 -120.67288 18296 ft 349 kts 326°
2026-05-05 18:45 37.76696 -120.69199 17919 ft 348 kts 326°
2026-05-05 18:46 37.78590 -120.71107 17561 ft 348 kts 326°
2026-05-05 18:46 37.80460 -120.72991 17192 ft 348 kts 326°
2026-05-05 18:46 37.82351 -120.74896 16834 ft 345 kts 326°
2026-05-05 18:46 37.84219 -120.76782 16492 ft 343 kts 326°
2026-05-05 18:47 37.86079 -120.78660 16166 ft 340 kts 326°
2026-05-05 18:47 37.87926 -120.80533 15828 ft 338 kts 326°
2026-05-05 18:47 37.89755 -120.82390 15492 ft 337 kts 326°
2026-05-05 18:47 37.91576 -120.84242 15163 ft 335 kts 326°
2026-05-05 18:48 37.93392 -120.86089 14832 ft 334 kts 326°
2026-05-05 18:48 37.95200 -120.87930 14508 ft 333 kts 326°
2026-05-05 18:48 37.96983 -120.89745 14188 ft 332 kts 325°
2026-05-05 18:48 37.98782 -120.91579 13858 ft 332 kts 325°
2026-05-05 18:49 38.00583 -120.93415 13489 ft 331 kts 325°
2026-05-05 18:49 38.02378 -120.95246 13133 ft 330 kts 325°
2026-05-05 18:49 38.04163 -120.97069 12782 ft 329 kts 325°
2026-05-05 18:49 38.05945 -120.98889 12429 ft 328 kts 325°
2026-05-05 18:50 38.07704 -121.00725 12082 ft 327 kts 322°
2026-05-05 18:50 38.09269 -121.02821 11773 ft 327 kts 315°
2026-05-05 18:50 38.10718 -121.05034 11442 ft 325 kts 314°
2026-05-05 18:50 38.12149 -121.07250 11127 ft 323 kts 314°
2026-05-05 18:51 38.13583 -121.09436 10785 ft 321 kts 315°
2026-05-05 18:51 38.15019 -121.11585 10461 ft 317 kts 315°
2026-05-05 18:51 38.16444 -121.13697 10151 ft 313 kts 315°
2026-05-05 18:51 38.17841 -121.15763 9941 ft 306 kts 316°
2026-05-05 18:52 38.19197 -121.17768 9938 ft 292 kts 316°
2026-05-05 18:52 38.20499 -121.19687 9893 ft 280 kts 316°
2026-05-05 18:52 38.21758 -121.21530 9759 ft 272 kts 318°
2026-05-05 18:52 38.23058 -121.23242 9488 ft 268 kts 320°
2026-05-05 18:53 38.24372 -121.24890 9163 ft 267 kts 320°
2026-05-05 18:53 38.25686 -121.26529 8917 ft 264 kts 320°
2026-05-05 18:53 38.26992 -121.28160 8637 ft 262 kts 320°
2026-05-05 18:53 38.28277 -121.29774 8497 ft 258 kts 320°
2026-05-05 18:54 38.29558 -121.31386 8393 ft 258 kts 319°
2026-05-05 18:54 38.30833 -121.32994 8286 ft 258 kts 319°
2026-05-05 18:54 38.32115 -121.34614 8208 ft 262 kts 319°
2026-05-05 18:54 38.33415 -121.36258 8100 ft 265 kts 319°
2026-05-05 18:55 38.34715 -121.37906 7988 ft 267 kts 319°
2026-05-05 18:55 38.36021 -121.39566 7873 ft 264 kts 319°
2026-05-05 18:55 38.37306 -121.41200 7769 ft 259 kts 318°
2026-05-05 18:55 38.38578 -121.42818 7665 ft 257 kts 318°
2026-05-05 18:56 38.39844 -121.44429 7568 ft 257 kts 318°
2026-05-05 18:56 38.41107 -121.46036 7475 ft 256 kts 318°
2026-05-05 18:56 38.42368 -121.47641 7375 ft 255 kts 318°
2026-05-05 18:56 38.43624 -121.49241 7283 ft 254 kts 318°
2026-05-05 18:57 38.44876 -121.50836 7190 ft 254 kts 318°
2026-05-05 18:57 38.45704 -121.51893 7125 ft 254 kts 318°
2026-05-05 18:57 38.46952 -121.53485 7027 ft 254 kts 318°
2026-05-05 18:57 38.48252 -121.55017 6858 ft 256 kts 323°
2026-05-05 18:58 38.49661 -121.56429 6684 ft 259 kts 324°
2026-05-05 18:58 38.51096 -121.57836 6497 ft 260 kts 324°
2026-05-05 18:58 38.52977 -121.59700 6211 ft 257 kts 324°
2026-05-05 18:58 38.53926 -121.60648 6078 ft 256 kts 323°
2026-05-05 18:59 38.55308 -121.62035 5866 ft 254 kts 323°
2026-05-05 18:59 38.56689 -121.63425 5662 ft 251 kts 323°
2026-05-05 18:59 38.58067 -121.64780 5479 ft 248 kts 329°
2026-05-05 18:59 38.59642 -121.65604 5307 ft 244 kts 345°
2026-05-05 19:00 38.61278 -121.66189 5127 ft 244 kts 345°
2026-05-05 19:00 38.62916 -121.66791 4963 ft 243 kts 344°
2026-05-05 19:00 38.64490 -121.67383 4819 ft 231 kts 344°
2026-05-05 19:00 38.66005 -121.67959 4514 ft 224 kts 343°
2026-05-05 19:01 38.67484 -121.68526 4188 ft 219 kts 343°
2026-05-05 19:01 38.68905 -121.69071 3895 ft 213 kts 343°
2026-05-05 19:01 38.70310 -121.69612 3585 ft 208 kts 343°
2026-05-05 19:01 38.71703 -121.70005 3261 ft 205 kts 358°
2026-05-05 19:02 38.73113 -121.69939 2997 ft 199 kts
2026-05-05 19:02 38.74481 -121.69888 2755 ft 196 kts
2026-05-05 19:02 38.75834 -121.69850 2526 ft 192 kts
2026-05-05 19:02 38.77155 -121.69672 2303 ft 188 kts 14°
2026-05-05 19:03 38.78312 -121.69014 2110 ft 179 kts 34°
2026-05-05 19:03 38.79199 -121.67912 2005 ft 178 kts 54°
2026-05-05 19:03 38.79766 -121.66501 1904 ft 180 kts 71°
2026-05-05 19:03 38.79967 -121.64921 1768 ft 180 kts 90°
2026-05-05 19:04 38.79769 -121.63347 1608 ft 179 kts 109°
2026-05-05 19:04 38.79197 -121.61953 1444 ft 173 kts 127°
2026-05-05 19:04 38.78379 -121.60935 1277 ft 160 kts 145°
2026-05-05 19:04 38.77415 -121.60299 1159 ft 154 kts 161°
2026-05-05 19:05 38.76376 -121.60022 1061 ft 154 kts 176°
2026-05-05 19:05 38.75314 -121.60004 954 ft 151 kts 181°
2026-05-05 19:05 38.74253 -121.60036 788 ft 153 kts 181°
2026-05-05 19:05 38.73181 -121.60079 587 ft 155 kts 182°
2026-05-05 19:06 38.72100 -121.60106 334 ft 156 kts 180°
2026-05-05 19:06 38.71023 -121.60103 97 ft 153 kts 181°
2026-05-05 19:06 38.70017 -121.60118 35 ft 130 kts 180°
2026-05-05 19:06 38.69270 -121.60133 29 ft 66 kts 181°
2026-05-05 19:07 38.69065 -121.60070 34 ft 24 kts 105°
2026-05-05 19:07 38.69073 -121.59898 30 ft 13 kts 48°
2026-05-05 19:07 38.69154 -121.59872 32 ft 12 kts
2026-05-05 19:07 38.69239 -121.59871 33 ft 12 kts 360°
2026-05-05 19:08 38.69324 -121.59870 32 ft 14 kts
2026-05-05 19:08 38.69430 -121.59868 31 ft 17 kts
2026-05-05 19:08 38.69555 -121.59866 32 ft 18 kts
2026-05-05 19:08 38.69678 -121.59857 33 ft 17 kts 23°
2026-05-05 19:09 38.69702 -121.59770 33 ft 11 kts 91°
2026-05-05 19:09 38.69701 -121.59657 33 ft 14 kts 89°
2026-05-05 19:09 38.69680 -121.59540 32 ft 14 kts 152°
2026-05-05 19:09 38.69632 -121.59515 34 ft 4 kts 156°
2026-05-05 19:10 38.69631 -121.59515 34 ft 0 kts 156°